Regional Weather Roundup
Issued by NWS

Home | Current Version | Previous Version | Graphics & Text | Print | Product List | Glossary On
Versions: 1 2 3 4 5 6 7 8 9 10 11 12 13 14 15 16 17 18 19 20 21 22 23 24 25 26 27 28 29 30 31 32 33 34 35 36 37 38 39 40 41 42 43 44 45 46 47 48 49
000
ASUS43 KDMX 292007
RWRIA

WEATHER ROUNDUP FOR IOWA
NATIONAL WEATHER SERVICE DES MOINES IA
300 PM CDT WED JUL 29 2015

NOTE: "FAIR" INDICATES FEW OR NO CLOUDS BELOW 12,000 FEET WITH NO
SIGNIFICANT WEATHER AND/OR OBSTRUCTIONS TO VISIBILITY.

* - THESE STATIONS ARE NOT NWS STATIONS...THUS NOT UNDER NWS
QUALITY CONTROL.  THEY ALSO DO NOT REPORT WEATHER SUCH
AS PRECIPITATION OR FOG.

IAZ001>003-012>014-020>022-031>034-043>046-292100-
   NORTHWEST IOWA

CITY           SKY/WX    TMP DP  RH WIND       PRES   REMARKS
CARROLL *      SUNNY     81  57  44 W13G18    30.13F HX  81
CHEROKEE *     SUNNY     81  55  41 W10       30.13F HX  80
DENISON *      SUNNY     81  59  47 NW10G17   30.13F HAZE    HX  81
LE MARS *      SUNNY     81  57  44 W10G18    30.14F HX  81
ORANGE CITY *  SUNNY     81  55  41 W12       30.13F HX  80
SHELDON *      SUNNY     79  57  47 W14G23    30.10F HX  80
SIOUX CITY     SUNNY     83  56  39 NW14      30.13F HX  82
SPENCER        SUNNY     82  53  36 W20G30    30.11F HX  81
STORM LAKE *   SUNNY     79  57  47 W15       30.14F HX  80
$$

IAZ055>058-069>071-079>083-090>094-292100-
   SOUTHWEST IOWA

CITY           SKY/WX    TMP DP  RH WIND       PRES   REMARKS
ATLANTIC *     SUNNY     82  54  36 NW13      30.15F HX  81
AUDUBON *      SUNNY     82  57  42 NW5       30.16F HX  82
CLARINDA *     SUNNY     82  61  47 N10       30.17S HX  83
COUNCIL BLFS * SUNNY     81  55  41 VRB7      30.16F HX  80
CRESTON *      SUNNY     81  55  41 NW9G16    30.16F HX  80
HARLAN  *      SUNNY     81  61  50 W10       30.19F HX  81
LAMONI           N/A    N/A N/A N/A MISG      30.16S
RED OAK *      MOSUNNY   82  54  36 N7        30.16F HX  81
SHENANDOAH *   SUNNY     82  61  47 N8        30.16S HX  83
$$

IAZ047>049-059>061-072>074-084-292100-
   CENTRAL IOWA

CITY           SKY/WX    TMP DP  RH WIND       PRES   REMARKS
AMES           SUNNY     81  57  43 NW15G23   30.11S HX  81
ANKENY *       SUNNY     82  55  39 NW17      30.11F HX  82
CHARITON *     SUNNY     82  57  42 NW10      30.14S HX  82
DES MOINES     MOSUNNY   85  53  33 NW12G22   30.12R HX  83
GRINNELL*      SUNNY     81  59  47 W14       30.11F HX  81
KNOXVILLE *    SUNNY     82  55  39 NW12      30.12S HX  82
MARSHALLTOWN     N/A     81  58  45 W15G25    30.09F HX  81
PELLA *        MOSUNNY   82  61  47 NW12G17   30.13S HX  83
PERRY *          N/A     79  55  44 NW10      30.13S
$$

IAZ004>006-015-016-023>025-035-036-292100-
   NORTH CENTRAL IOWA

CITY           SKY/WX    TMP DP  RH WIND       PRES   REMARKS
ALGONA *       SUNNY     81  55  41 W21G26    30.09F HX  80
CLARION *      SUNNY     81  57  44 W18G25    30.09F HX  81
ESTHERVILLE    SUNNY     79  56  45 W16G28    30.08F HX  80
FORT DODGE *   SUNNY     81  55  41 W14G22    30.12S HX  80
MASON CITY     SUNNY     83  55  38 W25G31    30.07F HX  82
FOREST CITY *  SUNNY     79  52  38 W16G25    30.07F
IOWA FALLS *     N/A     81  57  44 W12G22    30.11F HX  81
$$

IAZ007>011-017>019-026>030-037>042-050>054-066-292100-
   NORTHEAST IOWA

CITY           SKY/WX    TMP DP  RH WIND       PRES   REMARKS
CEDAR RAPIDS   SUNNY     82  60  47 W15G23    30.08S HX  82
CHARLES CITY * SUNNY     81  55  41 W20G26    30.06F HX  80
CLINTON *      SUNNY     81  57  44 W14       30.08S HX  81
DECORAH *      SUNNY     79  54  41 NW12G26   30.03S
DUBUQUE        SUNNY     82  56  40 W18G24    30.06S HX  82
MONTICELLO *   SUNNY     82  55  39 W17G25    30.06S HX  82
OELWEIN *      SUNNY     81  55  41 W17G26    30.07S HX  80
WATERLOO       SUNNY     82  53  36 W20G30    30.05F HX  81
$$

IAZ064-065-067-068-078-292100-
   EAST CENTRAL IOWA

CITY           SKY/WX    TMP DP  RH WIND       PRES   REMARKS
DAVENPORT      MOSUNNY   82  57  42 NW14G20   30.07F HX  82
IOWA CITY      SUNNY     84  56  38 NW14      30.09S HX  83
MT. PLEASANT * MOSUNNY   84  48  28 NW8       30.10S HX  82
MUSCATINE *    SUNNY     84  55  37 NW14G20   30.08S HX  83
QUAD CITIES    MOSUNNY   86  56  35 NW9       30.06S HX  85
$$

IAZ062-063-075>077-085>089-095>099-292100-
   SOUTHEAST IOWA

CITY           SKY/WX    TMP DP  RH WIND       PRES   REMARKS
BURLINGTON     MOSUNNY   83  60  45 NW6       30.09F HX  83
FAIRFIELD *    SUNNY     81  57  44 NW10G17   30.11S HX  81
FORT MADISON * SUNNY     81  63  54 NW6       30.11S HX  82
KEOKUK *       SUNNY     82  61  47 N12       30.09F HX  83
OSKALOOSA *      N/A     81  61  50 NW9       30.12S HX  81
CENTERVILLE *  SUNNY     81  59  47 NW9       30.15F HX  81
OTTUMWA        MOSUNNY   82  61  48 NW10      30.10S HX  83
WASHINGTON *   SUNNY     82  63  51 NW10      30.11F HX  83
$$

ABBREVIATIONS USED IN REMARKS
   TC - TEMPERATURES IN CELSIUS
  WCI - WIND CHILL INDEX
   HX - HEAT INDEX
  VSB - VISIBILITY
$$




USA.gov is the U.S. government's official web portal to all federal, state and local government web resources and services.